This demonstration page uses our WeatherBlox Daily Observations layout. Learn more.

Left ArrowRight Arrow

Hourly Observations for December 14, 2017

Temp ( °F °C ) Dew Point ( °F °C ) Humidity (%) Winds ( mph kmh ) Pressure ( in mb ) Visibility ( mi km ) Precip ( " mm )
12:53 am 00:53 Clear 33 0.6 24 -4.4 70 70 NNW 9 15 29.88 1012 10 16 0.00 0.00
1:53 am 01:53 Clear 34 1.1 23 -5 64 64 NNW 7 11 29.88 1012 10 16 0.00 0.00
2:53 am 02:53 Clear 33 0.6 23 -5 66 66 NW 8 13 29.88 1012 10 16 0.00 0.00
3:53 am 03:53 Clear 33 0.6 22 -5.6 64 64 NW 8 13 29.88 1012 10 16 0.00 0.00
4:53 am 04:53 Clear 32 0 22 -5.6 66 66 NNW 10 17 29.90 1013 10 16 0.00 0.00
5:53 am 05:53 Clear 32 0 22 -5.6 66 66 N 9 15 29.94 1014 10 16 0.00 0.00
6:53 am 06:53 Clear 34 1.1 21 -6.1 59 59 N 12 19 29.96 1015 10 16 0.00 0.00
7:53 am 07:53 Sunny 33 0.6 21 -6.1 61 61 N 10 17 30.00 1016 10 16 0.00 0.00
8:53 am 08:53 Sunny 38 3.3 22 -5.6 52 52 N 10 17 30.04 1017 10 16 0.00 0.00
9:53 am 09:53 Sunny 48 8.9 23 -5 37 37 NE 10 17 30.06 1018 10 16 0.00 0.00
10:53 am 10:53 Sunny 53 11.7 22 -5.6 30 30 ENE 13 20 30.07 1018 10 16 0.00 0.00
11:53 am 11:53 Sunny 56 13.3 21 -6.1 26 26 ENE 15 24 30.07 1018 10 16 0.00 0.00
12:53 pm 12:53 Sunny 57 13.9 20 -6.7 24 24 ENE 18 30 30.06 1018 10 16 0.00 0.00
1:53 pm 13:53 Sunny 57 13.9 20 -6.7 24 24 ENE 13 20 30.05 1018 10 16 0.00 0.00
2:53 pm 14:53 Sunny 58 14.4 22 -5.6 25 25 ENE 15 24 30.05 1018 10 16 0.00 0.00
3:53 pm 15:53 Sunny 58 14.4 22 -5.6 25 25 ENE 14 22 30.05 1018 10 16 0.00 0.00
4:53 pm 16:53 Sunny 56 13.3 22 -5.6 27 27 ENE 13 20 30.07 1018 10 16 0.00 0.00
5:53 pm 17:53 Clear 50 10 23 -5 35 35 ENE 8 13 30.10 1019 10 16 0.00 0.00
6:53 pm 18:53 Clear 44 6.7 24 -4.4 45 45 ENE 8 13 30.14 1021 10 16 0.00 0.00
7:53 pm 19:53 Clear 39 3.9 24 -4.4 55 55 ENE 8 13 30.18 1022 10 16 0.00 0.00
8:53 pm 20:53 Clear 35 1.7 24 -4.4 64 64 NE 8 13 30.22 1023 10 16 0.00 0.00
9:53 pm 21:53 Clear 34 1.1 24 -4.4 67 67 NNE 7 11 30.24 1024 10 16 0.00 0.00
10:53 pm 22:53 Clear 32 0 24 -4.4 73 73 N 8 13 30.26 1025 10 16 0.00 0.00
11:53 pm 23:53 Clear 33 0.6 23 -5 66 66 NNE 8 13 30.27 1025 10 16 0.00 0.00

Powered by AerisWeather